Weather in Pavlysh

Ukraine / Kirovohrad Region     48°55′16″N   33°20′34″E
temp.,
°C
wind,
m/s
gust,
m/s
humid.,
%
clouds,
%
prec.,
mm/h
press.,
hPa
HPBL,
m
23 april, fri
fri2300:00+10s4117312 0.0 1019226
03:00+9s6127887 0.0 1018307
06:00+8s7148315 0.0 1017309
09:00+12ssw8126798 0.1 1017533
12:00+15ssw71061100 0.4 10161071
15:00+10wnw8991100 4.9 1014611
18:00+7nnw7887100 7.1 1017779
21:00+7nw4685100 7.4 1018485
24 april, sat
sat2400:00+6w3587100 1.0 1017275
03:00+5w510840 1.0 1017295
06:00+4w510825 0.0 1018262
09:00+6wnw811644 0.0 10191070
12:00+9nw8114577 0.0 10202064
15:00+9wnw81244100 0.0 10202236
18:00+9nw712464 0.0 10202442
21:00+6wnw59575 0.0 1022296
25 april, sun
sun2500:00+4wsw36670 0.0 1022114
03:00+3wsw357168 0.0 102292
06:00+3sw357433 0.0 102288
09:00+8ssw465889 0.0 1021536
12:00+12sw574598 0.0 10192182
15:00+12wsw575082 0.1 10181823
18:00+10wnw5669100 0.6 1017945
21:00+7nw3589100 6.6 1019452
26 april, mon
mon2600:00+7ese1186100 2.4 1019215
03:00+6nw1282100 2.9 1018335
06:00+4nne1287100 2.4 1018357
09:00+6wnw4476100 2.5 1018837
12:00+8nw565127 0.1 10181470
15:00+9nnw464564 0.1 10171465
18:00+9nw574895 0.0 10161616
21:00+7nw476088 0.1 1017269
27 april, tue
tue2700:00+6w346395 0.0 101880
03:00+4wsw33675 0.0 101751
06:00+4wsw3468100 0.0 101796
09:00+6wsw4564100 0.1 1018568
12:00+5sw2285100 0.7 1019595
15:00+6s438269 0.9 1018630
18:00+8ssw227111 0.0 1017692
21:00+5sse3485100 0.0 1018114